TimeEST,TemperatureF,Dew PointF,Humidity,Sea Level PressureIn,VisibilityMPH,Wind Direction,Wind SpeedMPH,Gust SpeedMPH,PrecipitationIn,Events,Conditions,WindDirDegrees,DateUTC
12:54 AM,28.9,17.1,61,30.15,10.0,WNW,16.1,23.0,N/A,,Clear,290,2012-03-10 05:54:00
1:54 AM,28.0,12.9,53,30.17,10.0,WNW,21.9,32.2,N/A,,Clear,290,2012-03-10 06:54:00
2:54 AM,26.1,10.9,53,30.19,10.0,West,13.8,-,N/A,,Clear,280,2012-03-10 07:54:00
3:54 AM,26.1,10.9,53,30.20,10.0,WNW,15.0,27.6,N/A,,Clear,290,2012-03-10 08:54:00
4:54 AM,25.0,12.0,58,30.22,10.0,WNW,16.1,31.1,N/A,,Partly Cloudy,290,2012-03-10 09:54:00
5:54 AM,25.0,14.0,63,30.26,10.0,WNW,19.6,29.9,N/A,,Overcast,290,2012-03-10 10:54:00
6:54 AM,25.0,15.1,66,30.30,10.0,WNW,21.9,31.1,N/A,,Overcast,300,2012-03-10 11:54:00
7:54 AM,26.1,15.1,63,30.33,10.0,NW,17.3,26.5,N/A,,Mostly Cloudy,310,2012-03-10 12:54:00
8:54 AM,28.9,17.1,61,30.37,10.0,NNW,18.4,25.3,N/A,,Clear,340,2012-03-10 13:54:00
9:54 AM,30.9,18.0,59,30.39,10.0,North,9.2,-,N/A,,Mostly Cloudy,10,2012-03-10 14:54:00
10:54 AM,30.0,18.0,61,30.41,10.0,North,9.2,-,N/A,,Mostly Cloudy,350,2012-03-10 15:54:00
11:54 AM,30.9,18.0,59,30.44,10.0,NNW,8.1,-,N/A,,Overcast,340,2012-03-10 16:54:00
12:19 PM,30.2,17.6,60,30.41,10.0,North,8.1,-,N/A,,Overcast,350,2012-03-10 17:19:00
12:54 PM,32.0,18.0,56,30.45,10.0,NNW,5.8,-,N/A,,Overcast,340,2012-03-10 17:54:00
1:54 PM,34.0,17.1,50,30.45,10.0,North,5.8,-,N/A,,Overcast,10,2012-03-10 18:54:00
2:54 PM,34.0,17.1,50,30.46,10.0,West,5.8,-,N/A,,Overcast,280,2012-03-10 19:54:00
3:54 PM,34.0,16.0,48,30.46,10.0,WNW,5.8,-,N/A,,Overcast,290,2012-03-10 20:54:00
4:54 PM,34.0,15.1,46,30.46,10.0,Calm,Calm,-,N/A,,Partly Cloudy,0,2012-03-10 21:54:00
5:54 PM,33.1,14.0,46,30.48,10.0,Calm,Calm,-,N/A,,Clear,0,2012-03-10 22:54:00
6:54 PM,30.0,16.0,56,30.51,10.0,SW,3.5,-,N/A,,Clear,220,2012-03-10 23:54:00
7:54 PM,28.9,16.0,58,30.51,10.0,SW,3.5,-,N/A,,Clear,220,2012-03-11 00:54:00
8:54 PM,27.0,16.0,63,30.51,10.0,SW,5.8,-,N/A,,Clear,220,2012-03-11 01:54:00
9:54 PM,27.0,16.0,63,30.51,10.0,SSW,4.6,-,N/A,,Clear,210,2012-03-11 02:54:00
10:54 PM,27.0,16.0,63,30.51,10.0,SSW,6.9,-,N/A,,Clear,200,2012-03-11 03:54:00
11:54 PM,28.0,17.1,63,30.50,10.0,SSW,9.2,-,N/A,,Partly Cloudy,200,2012-03-11 04:54:00